Edinburg, TX

4:41 AM CDT on July 26, 2017 (GMT -0500)
Edinburg

Weather History for KEBG - August, 2013

Change the Weather History Date:

Friday, August 30, 2013

  Actual Average (KMFE) Record (KMFE)
Temperature  
Mean Temperature 86 °F -  
Max Temperature 97 °F 93 °F 107 °F (2012)
Min Temperature 76 °F 74 °F 70 °F (1976)
Cooling Degree Days 22    
Growing Degree Days 36 (Base 50)    
Moisture  
Dew Point 71 °F    
Average Humidity 65    
Maximum Humidity 89    
Minimum Humidity 30    
Precipitation  
Precipitation 0.00 in - - ()
Sea Level Pressure  
Sea Level Pressure 29.97 in    
Wind  
Wind Speed 4 mph (SE)    
Max Wind Speed 15 mph    
Max Gust Speed 18 mph    
Visibility 7 miles    
Events      
Averages and records for this station are not official NWS values.
T = Trace of Precipitation, MM = Missing Value Source: NWS Daily Summary

Daily Weather History Graph

Daily Weather History Graph

Search for Another Location

Airport or City:

Trip Planner

Search our weather history database for the weather conditions in past years. The results will help you decide how hot, cold, wet, or windy it might be!

Date:

Astronomy

Aug. 30, 2013 Rise Set
Actual Time 7:11 AM CDT 7:54 PM CDT
Civil Twilight 6:48 AM CDT 8:17 PM CDT
Nautical Twilight 6:20 AM CDT 8:45 PM CDT
Astronomical Twilight 5:52 AM CDT 9:13 PM CDT
Moon 2:08 AM CDT (8/30) 3:54 PM CDT (8/30)
Length of Visible Light 13h 29m
Length of Day
12h 42m
Waning Crescent, 29% of the Moon is Illuminated
Aug 30
Waning Crescent
Sep 5
New
Sep 12
First Quarter
Sep 19
Full
Sep 26
Last Quarter

Hourly Weather History & Observations

Time (CDT) Temp. Heat Index Dew Point Humidity Pressure Visibility Wind Dir Wind Speed Gust Speed Precip Events Conditions
12:15 AM 79.3 °F - 73.9 °F 83% 30.02 in 7.0 mi SE 5.8 mph - N/A   Clear
12:35 AM 79.0 °F - 74.1 °F 85% 30.02 in 10.0 mi SSE 4.6 mph - N/A   Clear
12:55 AM 78.8 °F - 73.9 °F 85% 30.02 in 7.0 mi SSE 3.5 mph - N/A   Clear
1:15 AM 78.6 °F - 73.9 °F 85% 30.01 in 7.0 mi South 4.6 mph - N/A   Clear
1:35 AM 78.8 °F - 74.1 °F 85% 30.01 in 7.0 mi South 3.5 mph - N/A   Clear
1:55 AM 78.8 °F - 73.9 °F 85% 30.01 in 10.0 mi South 3.5 mph - N/A   Clear
2:15 AM 78.8 °F - 74.3 °F 86% 30.00 in 7.0 mi South 3.5 mph - N/A   Clear
2:35 AM 78.6 °F - 74.1 °F 86% 30.00 in 10.0 mi SSW 4.6 mph - N/A   Clear
2:55 AM 78.6 °F - 74.1 °F 86% 30.00 in 7.0 mi South 4.6 mph - N/A   Clear
3:15 AM 78.6 °F - 74.1 °F 86% 29.99 in 7.0 mi South 4.6 mph - N/A   Clear
3:35 AM 78.1 °F - 73.9 °F 87% 29.99 in 7.0 mi South 3.5 mph - N/A   Clear
3:55 AM 77.9 °F - 73.9 °F 88% 29.98 in 7.0 mi South 4.6 mph - N/A   Clear
4:15 AM 78.1 °F - 73.9 °F 87% 29.98 in 7.0 mi South 3.5 mph - N/A   Clear
4:35 AM 77.9 °F - 73.8 °F 87% 29.98 in 7.0 mi Calm Calm - N/A   Clear
4:55 AM 77.7 °F - 73.6 °F 87% 29.98 in 7.0 mi Calm Calm - N/A   Clear
5:15 AM 77.4 °F - 73.6 °F 88% 29.98 in 7.0 mi Calm Calm - N/A   Clear
5:35 AM 77.4 °F - 73.6 °F 88% 29.98 in 7.0 mi Calm Calm - N/A   Clear
5:55 AM 77.2 °F - 73.6 °F 89% 29.98 in 7.0 mi Calm Calm - N/A   Clear
6:15 AM 77.0 °F - 73.4 °F 89% 29.99 in 7.0 mi Calm Calm - N/A   Scattered Clouds
6:35 AM 77.0 °F - 73.6 °F 89% 29.99 in 7.0 mi Calm Calm - N/A   Scattered Clouds
6:55 AM 76.6 °F - 73.2 °F 89% 29.99 in 5.0 mi Calm Calm - N/A   Scattered Clouds
7:15 AM 77.0 °F - 73.4 °F 89% 30.00 in 7.0 mi Calm Calm - N/A   Scattered Clouds
7:35 AM 76.8 °F - 73.4 °F 89% 30.01 in 4.0 mi Calm Calm - N/A   Clear
7:55 AM 77.0 °F - 73.6 °F 89% 30.01 in 4.0 mi Calm Calm - N/A   Clear
9:15 AM 81.0 °F 87.3 °F 75.9 °F 85% 30.02 in 5.0 mi East 3.5 mph - N/A   Haze
9:35 AM 82.4 °F 90.1 °F 75.9 °F 81% 30.02 in 5.0 mi Calm Calm - N/A   Haze
9:55 AM 83.5 °F 91.6 °F 75.6 °F 77% 30.03 in 5.0 mi SSE 4.6 mph - N/A   Haze
10:15 AM 85.1 °F 93.7 °F 75.0 °F 72% 30.02 in 5.0 mi South 5.8 mph - N/A   Haze
10:35 AM 85.8 °F 94.6 °F 74.8 °F 70% 30.02 in 7.0 mi SSW 4.6 mph - N/A   Scattered Clouds
10:55 AM 87.1 °F 95.4 °F 74.1 °F 65% 30.02 in 7.0 mi South 6.9 mph - N/A   Scattered Clouds
11:15 AM 87.1 °F 94.5 °F 73.0 °F 63% 30.02 in 7.0 mi South 5.8 mph - N/A   Scattered Clouds
11:35 AM 88.3 °F 95.0 °F 72.0 °F 58% 30.02 in 7.0 mi SSE 3.5 mph - N/A   Clear
11:55 AM 89.6 °F 96.6 °F 71.8 °F 56% 30.02 in 5.0 mi Calm Calm - N/A   Haze
12:15 PM 89.4 °F 95.8 °F 71.1 °F 55% 30.02 in 7.0 mi Calm Calm - N/A   Scattered Clouds
12:35 PM 91.0 °F 97.1 °F 70.3 °F 51% 30.01 in 7.0 mi ESE 5.8 mph - N/A   Scattered Clouds
12:55 PM 91.4 °F 94.9 °F 67.6 °F 45% 30.00 in 10.0 mi Calm Calm - N/A   Scattered Clouds
1:15 PM 91.8 °F 96.0 °F 68.0 °F 46% 29.99 in 7.0 mi Calm Calm - N/A   Clear
1:35 PM 92.8 °F 96.1 °F 66.7 °F 42% 29.99 in 7.0 mi East 4.6 mph - N/A   Clear
1:55 PM 94.3 °F 97.2 °F 65.8 °F 39% 29.98 in 7.0 mi ESE 3.5 mph - N/A   Clear
2:15 PM 94.1 °F 95.9 °F 64.0 °F 37% 29.97 in 7.0 mi South 4.6 mph - N/A   Clear
2:35 PM 95.0 °F 96.0 °F 62.8 °F 34% 29.97 in 10.0 mi Calm Calm - N/A   Scattered Clouds
2:55 PM 94.6 °F 95.9 °F 63.3 °F 35% 29.96 in 7.0 mi SSW 3.5 mph - N/A   Scattered Clouds
3:15 PM 95.0 °F 97.0 °F 64.2 °F 36% 29.94 in 10.0 mi ESE 5.8 mph - N/A   Clear
3:35 PM 95.9 °F 97.0 °F 62.8 °F 33% 29.93 in 7.0 mi Calm Calm - N/A   Clear
3:55 PM 96.1 °F 96.9 °F 61.7 °F 32% 29.93 in 7.0 mi ESE 5.8 mph - N/A   Clear
4:15 PM 96.6 °F 97.3 °F 61.2 °F 31% 29.91 in 7.0 mi SSE 4.6 mph - N/A   Scattered Clouds
4:35 PM 96.8 °F 97.1 °F 60.4 °F 30% 29.91 in 10.0 mi Calm Calm - N/A   Clear
4:55 PM 97.3 °F 97.9 °F 61.5 °F 30% 29.90 in 7.0 mi ESE 6.9 mph - N/A   Clear
5:15 PM 96.8 °F 99.5 °F 65.3 °F 35% 29.90 in 10.0 mi East 13.8 mph - N/A   Clear
5:35 PM 94.6 °F 98.9 °F 67.5 °F 41% 29.90 in 7.0 mi East 13.8 mph - N/A   Scattered Clouds
5:55 PM 93.7 °F 97.2 °F 67.1 °F 41% 29.90 in 7.0 mi East 15.0 mph - N/A   Mostly Cloudy
6:15 PM 93.6 °F 97.4 °F 67.3 °F 42% 29.90 in 7.0 mi East 13.8 mph 18.4 mph N/A   Mostly Cloudy
6:35 PM 92.1 °F 96.7 °F 68.7 °F 46% 29.90 in 7.0 mi ESE 15.0 mph - N/A   Mostly Cloudy
6:55 PM 92.3 °F 97.6 °F 69.3 °F 47% 29.90 in 7.0 mi ESE 12.7 mph - N/A   Scattered Clouds
7:15 PM 91.4 °F 96.3 °F 69.3 °F 48% 29.90 in 7.0 mi ESE 15.0 mph - N/A   Clear
7:35 PM 89.8 °F 95.6 °F 70.3 °F 53% 29.90 in 10.0 mi ESE 13.8 mph - N/A   Clear
7:55 PM 88.7 °F 94.3 °F 70.5 °F 55% 29.90 in 7.0 mi ESE 15.0 mph - N/A   Clear
8:15 PM 87.6 °F 93.1 °F 70.7 °F 57% 29.91 in 7.0 mi ESE 11.5 mph - N/A   Clear
8:35 PM 86.9 °F 92.1 °F 70.7 °F 58% 29.91 in 7.0 mi ESE 10.4 mph - N/A   Clear
8:55 PM 85.8 °F 91.1 °F 70.9 °F 61% 29.92 in 7.0 mi ESE 9.2 mph - N/A   Clear
9:15 PM 85.1 °F 90.1 °F 70.7 °F 62% 29.92 in 10.0 mi ESE 9.2 mph - N/A   Clear
9:35 PM 84.4 °F 89.0 °F 70.7 °F 63% 29.92 in 7.0 mi ESE 8.1 mph - N/A   Clear
9:55 PM 83.5 °F 88.2 °F 71.2 °F 66% 29.93 in 7.0 mi SE 6.9 mph - N/A   Clear
10:15 PM 82.8 °F 87.7 °F 71.8 °F 69% 29.93 in 7.0 mi SE 5.8 mph - N/A   Clear
10:35 PM 81.9 °F 86.8 °F 72.3 °F 73% 29.94 in 7.0 mi SE 5.8 mph - N/A   Clear
10:55 PM 81.5 °F 86.5 °F 72.9 °F 75% 29.94 in 10.0 mi SE 4.6 mph - N/A   Clear
11:15 PM 80.6 °F 85.4 °F 73.4 °F 79% 29.94 in 7.0 mi SSE 4.6 mph - N/A   Clear
11:35 PM 80.6 °F 85.2 °F 73.0 °F 78% 29.94 in 7.0 mi SSE 4.6 mph - N/A   Clear
11:55 PM 80.1 °F 84.4 °F 73.4 °F 80% 29.93 in 7.0 mi South 6.9 mph - N/A   Clear